GEFSSE_500_meanwind_102.txt.gz
Wind_Speed
11 11 12 11 11 12 12 12 12 12 13 13 13 14 15 15 16 16 17 17 17 18 18 19 19 19 20 20 20 21 21 22 22 22 22 22 22 22 22 22 22 23 23
11 12 12 12 12 12 12 13 13 14 15 15 16 16 17 18 18 19 19 19 19 20 20 20 20 20 20 21 21 21 22 22 23 23 24 24 24 24 24 24 24 24 24
12 12 12 12 12 13 13 14 15 15 16 16 17 18 18 18 19 19 20 20 20 21 21 21 21 21 21 21 21 22 22 23 23 24 24 25 25 25 25 25 25 25 25
11 12 12 12 13 13 14 15 15 15 16 17 18 18 19 19 20 20 20 21 21 21 21 21 21 21 21 21 21 21 22 22 23 23 24 24 25 25 25 25 26 26 26
11 12 12 13 14 14 15 15 16 16 17 18 19 19 19 20 20 21 21 21 21 21 21 21 21 21 21 21 21 21 22 22 22 23 23 24 24 24 25 25 25 26 26
12 12 13 13 14 14 15 16 17 18 18 19 19 20 21 21 21 21 21 21 21 21 21 21 21 21 21 21 21 22 22 22 22 23 23 23 24 24 25 25 25 25 26
13 13 13 14 15 16 16 17 18 19 19 19 20 20 20 21 21 21 21 21 21 21 21 21 22 22 22 22 22 22 22 23 23 23 23 23 24 24 25 25 25 25 26
14 14 15 16 16 17 18 18 19 19 19 20 20 20 21 21 21 21 21 21 22 22 22 22 23 23 23 23 23 23 24 24 24 24 24 25 25 25 26 26 26 26 27
15 16 16 16 17 17 18 18 18 19 19 19 20 20 21 21 21 22 22 22 23 23 23 24 24 24 24 25 25 25 25 25 25 26 26 26 26 27 27 27 28 28 28
15 16 16 16 16 16 17 17 18 19 19 20 21 21 22 22 23 23 24 24 24 24 25 25 25 25 26 26 26 26 26 26 27 27 27 28 28 28 28 29 29 30 30
14 15 15 15 16 17 17 18 19 20 21 22 22 23 23 24 25 25 25 25 25 25 26 26 26 26 26 27 27 27 27 28 28 28 28 29 29 30 30 30 30 31 32
15 16 16 17 17 18 19 20 21 21 22 23 24 24 25 25 25 26 25 26 26 26 26 26 26 26 26 27 27 27 28 28 29 29 29 29 30 30 31 31 31 32 33
17 17 18 18 19 20 21 21 22 23 24 25 25 25 26 26 26 26 26 27 27 27 27 27 27 27 27 27 28 28 28 28 29 29 29 30 30 31 31 31 32 32 33
20 20 20 21 21 22 23 24 24 25 26 26 26 27 27 27 27 27 27 27 27 27 27 27 28 28 28 28 28 29 29 29 30 30 30 30 31 31 32 32 33 33 34
23 23 23 23 24 25 25 26 26 27 27 27 28 29 29 29 29 29 28 28 28 28 28 28 28 28 28 29 29 29 30 30 31 31 32 32 32 33 33 34 34 35 35
25 25 26 26 26 26 27 27 28 28 29 29 30 30 30 30 30 29 29 29 29 29 29 29 29 29 29 29 30 30 31 31 32 33 33 33 33 34 35 35 36 36 37
28 28 28 28 28 28 29 29 29 30 30 30 31 31 31 31 31 30 30 30 30 30 30 30 30 30 30 30 31 32 32 33 34 34 35 35 35 35 35 36 36 37 38
30 30 31 31 30 30 30 31 31 31 31 31 31 32 32 32 32 31 31 31 30 30 30 31 31 31 31 32 33 33 34 35 36 36 36 36 37 37 37 37 38 38 39
33 33 33 33 33 32 33 33 33 32 32 32 32 32 33 33 32 32 32 32 31 31 31 31 32 33 33 34 35 36 36 37 37 38 38 38 39 39 39 39 40 40 41
35 35 35 35 35 34 34 34 34 33 33 33 32 33 33 33 33 33 33 32 32 32 32 33 33 34 35 36 37 38 38 39 39 40 41 41 41 41 42 42 42 43 43
36 36 36 36 36 36 36 35 35 34 34 33 33 34 34 34 34 33 33 33 33 33 34 34 35 36 37 37 38 39 40 41 42 42 43 43 43 44 44 45 45 45 45
38 37 37 37 37 37 37 36 36 35 35 34 34 34 34 34 34 34 34 34 34 34 35 36 37 38 38 39 40 40 41 42 43 44 44 45 46 46 46 47 47 48 48
39 38 38 37 37 37 36 36 36 35 35 35 35 35 35 34 34 34 35 35 36 36 37 38 39 40 40 41 42 42 42 43 43 44 45 47 47 48 48 49 49 50 50
41 40 38 38 37 37 37 36 36 36 36 36 36 36 35 35 35 35 36 37 37 38 39 40 41 42 43 43 43 44 45 45 45 44 45 47 48 48 49 50 51 52 52
40 39 39 38 37 37 36 36 36 37 37 36 35 35 36 36 36 36 37 38 38 39 41 42 43 44 44 45 45 46 46 47 47 47 45 46 47 48 49 51 52 52 53
39 38 37 37 37 36 36 36 36 36 36 35 35 35 36 36 37 38 38 39 40 41 43 44 44 45 46 47 47 48 48 48 49 49 48 47 47 48 49 50 51 53 54

GEFSSE_500_meanwind_108.txt.gz
Wind_Speed
13 12 12 12 11 11 11 10 11 11 11 11 12 12 12 13 13 14 14 15 15 16 17 17 18 18 19 19 20 20 20 20 20 20 20 20 20 20 20 21 21 22 22
14 13 13 12 12 12 11 11 11 12 12 12 13 13 13 14 14 14 15 15 16 17 18 18 18 19 19 20 20 20 20 21 21 20 21 21 21 21 21 21 22 22 22
13 13 13 13 13 12 12 12 12 12 13 13 13 13 14 14 14 15 15 16 17 18 18 18 18 18 19 19 19 20 20 20 20 20 21 21 21 22 22 22 22 22 22
13 13 13 13 13 13 13 13 13 13 13 13 13 13 14 15 15 16 16 17 17 17 18 18 18 18 19 19 19 19 20 20 20 21 21 21 22 22 22 22 22 22 23
12 12 13 13 13 13 13 13 13 13 13 14 14 15 15 16 16 17 17 17 17 18 18 19 19 19 19 20 20 20 21 21 21 21 21 22 22 23 23 23 23 23 23
13 13 13 14 14 14 13 14 14 14 15 15 15 16 16 16 17 17 17 18 18 19 19 19 19 20 20 21 21 21 21 21 22 22 22 23 23 24 24 24 24 24 25
14 14 14 14 13 14 14 15 15 16 16 16 16 17 17 17 17 17 18 19 19 20 20 20 20 21 21 22 22 23 23 23 23 24 24 24 24 25 25 25 26 26 26
14 14 14 14 14 15 16 16 16 16 17 17 17 17 17 17 18 18 19 20 20 21 21 22 22 23 23 23 24 24 24 25 25 25 26 26 26 26 26 26 27 27 28
14 15 15 15 16 16 16 17 17 16 16 17 17 18 18 18 18 19 20 21 21 22 23 23 24 24 25 25 26 26 26 26 27 27 27 27 27 27 28 28 28 29 29
15 16 16 16 16 17 17 17 17 17 17 17 18 18 19 19 20 21 22 22 23 23 24 25 25 25 26 26 27 27 27 28 28 28 28 28 29 29 29 29 30 30 30
16 16 17 17 17 17 18 17 17 17 18 18 19 20 20 21 22 23 23 24 24 25 25 26 26 26 27 27 28 28 28 28 28 28 29 29 30 30 30 30 30 31 31
18 18 18 18 18 18 18 18 18 19 19 20 21 22 22 23 24 24 25 25 25 26 27 27 27 27 28 28 29 29 29 29 29 29 30 30 30 30 30 31 31 32 32
19 19 19 19 19 19 19 20 20 21 22 22 23 24 24 25 25 26 26 27 27 27 28 28 29 29 29 29 29 30 30 30 30 29 30 31 31 31 31 31 32 32 33
21 21 21 21 21 22 22 22 23 23 24 25 25 26 26 27 27 28 28 28 28 29 29 29 30 30 30 30 31 31 31 31 31 30 30 31 31 31 32 32 32 33 34
24 24 24 24 24 24 24 24 25 26 26 27 27 28 28 29 29 30 30 30 30 30 30 31 31 31 31 32 32 32 32 31 32 31 31 31 32 32 33 33 34 34 35
27 27 27 27 27 27 27 27 28 28 29 29 30 30 31 31 31 31 31 31 31 31 32 32 32 32 32 32 33 33 32 32 32 32 32 32 33 34 34 34 35 36 36
30 29 30 30 30 30 30 30 30 31 31 31 32 32 32 33 33 33 33 33 33 33 33 33 33 33 33 33 33 33 33 33 33 33 33 34 34 35 36 36 36 37 37
33 32 32 33 33 32 33 33 33 32 33 33 34 34 34 34 34 34 34 34 34 34 34 34 34 34 34 34 34 34 34 34 34 35 35 35 36 36 37 38 38 38 39
36 36 35 36 36 35 35 35 35 35 35 35 35 36 36 36 36 36 36 35 35 35 35 35 35 35 35 35 35 34 35 35 36 36 37 37 38 38 38 39 40 40 40
39 39 38 38 38 38 37 37 37 37 37 37 37 37 37 37 37 36 36 36 36 36 36 36 36 35 35 35 35 36 37 37 37 38 39 39 39 40 40 40 41 41 42
41 41 40 40 40 40 40 39 39 38 38 38 38 38 38 38 37 36 36 36 36 37 37 36 36 36 36 37 37 38 38 38 39 40 41 41 41 41 41 42 42 43 43
42 43 42 42 42 42 42 41 41 40 40 39 39 39 39 38 37 37 37 37 37 37 37 37 37 37 38 38 39 39 39 40 40 42 43 43 43 43 44 44 44 45 45
43 43 44 43 42 43 43 42 41 40 40 40 40 40 40 39 38 38 38 38 38 38 38 38 38 39 39 40 40 41 41 41 41 42 43 44 45 45 45 46 46 46 46
44 45 45 44 44 43 43 42 42 42 41 41 40 40 40 39 38 38 38 38 38 38 38 38 39 40 40 41 42 42 43 43 43 42 44 45 45 46 46 46 47 47 47
44 44 44 44 44 43 43 43 43 42 42 41 41 40 40 39 39 38 38 38 38 39 39 39 40 41 41 42 42 43 43 44 45 45 44 45 45 46 46 47 47 48 48
42 42 42 43 43 42 43 43 43 42 42 41 41 40 39 39 38 38 38 38 38 39 40 40 41 42 42 42 43 44 45 46 46 46 45 45 45 45 46 47 47 48 48

GEFSSE_500_meanwind_114.txt.gz
Wind_Speed
14 14 13 12 11 10 9 9 8 8 8 8 9 9 10 11 11 12 13 13 14 14 15 16 17 17 17 18 18 19 19 20 20 20 20 20 21 21 21 22 22 22 22
15 14 13 13 12 11 10 10 10 9 9 10 10 11 11 12 12 13 13 14 15 15 16 17 17 17 18 18 18 18 19 20 20 20 20 21 21 21 22 23 23 23 23
15 15 14 13 12 12 11 11 11 11 11 11 11 12 12 13 13 14 14 15 15 16 16 16 17 17 17 17 18 18 19 20 20 20 21 21 22 22 22 23 23 23 23
16 15 14 13 13 12 12 11 11 12 12 12 12 12 13 14 14 15 15 16 16 16 16 17 17 17 18 19 19 20 20 21 21 21 22 22 22 22 23 23 24 24 25
16 15 14 14 13 12 12 12 12 12 12 12 13 13 14 14 15 15 16 16 16 17 17 18 18 19 19 20 20 20 21 22 22 22 23 23 23 23 24 24 25 25 26
16 15 14 14 13 13 13 12 12 12 12 13 14 14 15 15 15 16 16 16 17 17 18 19 19 20 20 20 21 21 21 22 22 23 23 24 24 25 25 26 26 27 27
15 15 14 14 13 13 13 13 13 13 14 15 15 15 16 16 17 17 17 18 18 19 20 20 21 21 21 21 22 22 22 23 23 24 24 25 26 26 26 27 27 28 28
15 15 14 14 14 13 13 14 14 15 15 16 16 16 17 17 17 18 18 19 19 20 20 21 22 22 22 23 23 23 24 24 25 25 26 26 27 27 28 28 28 28 29
14 14 14 14 14 14 14 14 15 15 16 16 16 17 17 17 18 18 19 20 20 21 22 22 23 23 23 24 24 25 25 26 26 27 27 27 28 28 29 29 29 30 30
14 14 14 14 14 14 14 15 15 15 16 16 16 17 17 18 19 19 20 21 21 22 23 23 24 24 25 25 25 26 26 27 27 28 28 28 29 29 30 30 30 31 31
15 14 14 15 15 15 15 15 16 16 16 17 17 18 18 19 19 20 21 22 23 24 24 25 25 26 26 26 27 27 27 28 29 29 29 29 30 30 31 31 31 32 32
16 16 16 16 16 16 16 16 17 17 17 18 18 19 20 21 21 22 23 24 24 25 26 26 27 27 28 28 28 29 29 29 30 31 31 31 31 31 31 32 32 32 33
18 17 17 17 17 17 17 18 18 18 19 20 20 21 22 23 23 24 24 25 26 27 27 28 28 28 29 29 30 30 30 31 31 31 32 32 32 33 33 33 33 34 34
19 19 19 18 18 19 19 20 20 20 21 21 22 23 23 24 25 26 27 27 28 28 29 29 29 30 30 31 32 32 32 32 32 32 33 34 34 34 34 34 34 35 35
21 21 20 20 20 21 21 21 22 22 23 23 24 24 25 26 27 28 28 29 30 30 31 31 31 31 32 32 33 33 34 33 33 34 34 35 35 35 35 34 35 35 36
22 22 22 22 22 22 23 23 24 24 25 25 26 27 27 28 29 30 30 31 31 32 32 32 33 33 34 34 34 34 34 34 34 35 35 35 36 36 36 36 36 37 37
25 25 24 24 24 24 25 25 26 27 27 28 29 29 30 30 31 31 32 33 33 33 34 34 34 35 35 35 35 35 35 35 35 35 36 36 37 37 37 38 38 38 38
28 28 27 27 26 26 27 28 28 29 30 31 31 32 32 33 33 34 34 34 34 35 35 35 35 36 36 36 36 36 36 36 36 37 37 37 38 38 39 39 39 40 40
31 30 30 30 30 30 30 30 30 31 32 33 34 34 35 35 35 35 35 35 36 36 36 36 37 37 37 37 37 37 37 38 38 38 38 39 39 39 40 40 41 41 42
34 33 33 33 33 33 33 33 33 34 35 35 36 37 37 37 37 37 37 37 37 37 37 37 37 37 37 37 37 38 38 39 39 39 39 40 40 40 40 41 41 42 43
36 36 35 36 35 36 36 36 36 36 37 37 38 38 38 39 38 38 38 38 38 38 38 38 38 38 38 38 38 39 39 39 39 40 40 40 41 41 42 42 43 43 44
38 38 38 38 38 38 38 38 38 38 38 38 39 39 40 40 39 39 39 39 39 39 40 40 40 39 39 39 39 39 39 39 40 41 42 42 42 42 43 43 44 44 45
40 40 40 40 40 40 40 40 40 40 39 39 39 40 41 40 40 39 40 40 40 40 40 41 40 40 39 39 40 40 40 40 40 41 42 42 43 43 43 44 44 45 45
42 42 42 41 41 41 41 41 40 41 40 40 41 41 41 41 40 40 40 41 40 40 41 40 40 39 39 39 40 40 40 41 41 41 42 43 43 44 44 45 46 46 46
41 41 41 41 41 41 41 41 41 41 41 41 41 41 41 41 41 41 41 41 40 41 41 40 40 39 39 40 40 40 40 41 41 42 41 43 44 45 45 46 46 46 46
39 40 40 40 40 39 39 39 40 40 40 40 41 41 41 41 41 41 41 41 40 40 40 40 39 39 39 40 40 40 41 41 42 42 42 43 44 44 45 46 46 46 46

GEFSSE_500_meanwind_120.txt.gz
Wind_Speed
18 17 16 15 14 13 13 12 11 11 10 9 9 8 8 8 9 9 10 10 11 12 12 13 14 15 15 16 16 16 16 17 17 18 18 19 19 19 19 20 20 21 21
18 17 16 15 14 13 13 13 12 11 11 11 10 10 10 10 10 10 11 11 11 12 13 14 14 15 15 15 15 16 17 17 18 19 19 20 20 20 20 21 21 21 22
20 18 17 16 15 14 14 13 12 12 12 11 11 11 11 11 11 11 11 12 12 13 13 14 15 15 15 16 17 18 18 19 20 20 20 20 20 21 21 21 22 22 23
20 19 18 17 16 15 14 14 13 13 12 12 12 12 12 11 11 12 12 13 13 14 14 15 15 16 17 18 19 19 20 20 20 20 20 20 21 21 21 22 23 23 24
20 20 19 18 17 15 15 14 13 13 13 13 12 12 12 12 12 12 13 13 14 14 15 15 16 17 18 19 20 20 21 21 21 21 21 22 22 22 23 23 24 25 25
20 20 19 18 17 16 15 14 14 13 13 12 12 12 12 12 13 14 14 14 15 15 16 16 17 18 20 20 21 21 21 22 22 23 23 23 24 24 25 25 26 26 27
21 20 19 18 17 17 16 15 14 13 13 13 13 13 13 14 14 15 15 15 16 16 17 18 19 19 20 21 21 22 23 23 24 24 24 25 25 26 26 27 27 28 28
20 20 19 18 18 17 16 15 15 14 14 14 14 14 14 15 15 15 16 16 17 17 18 19 20 20 21 22 22 23 24 24 25 25 26 26 27 27 28 28 29 29 30
19 19 19 18 18 17 17 16 16 15 15 15 15 15 15 15 15 16 16 17 17 18 19 20 20 21 22 23 24 24 25 26 26 26 27 28 28 29 29 30 30 31 31
18 18 18 18 18 18 17 17 17 16 16 16 16 16 16 16 16 16 17 18 18 19 20 21 21 22 23 24 25 26 26 27 27 28 29 29 30 30 31 32 32 32 32
18 18 18 18 18 18 18 17 17 17 16 17 17 17 17 17 17 17 18 19 19 20 21 22 23 24 25 26 26 27 28 28 29 30 30 31 31 32 33 33 33 34 34
19 18 18 18 18 18 18 17 17 17 17 17 17 17 18 18 18 19 19 20 21 22 23 24 25 26 27 27 28 28 29 30 31 31 32 32 33 33 34 34 34 35 35
20 20 19 19 19 19 18 18 18 18 18 18 18 18 19 19 19 20 20 21 22 23 24 25 26 27 28 28 29 30 30 31 32 33 33 34 34 35 35 35 36 36 37
22 21 21 20 20 20 19 19 19 19 19 19 19 19 19 20 21 21 22 23 24 25 26 27 28 29 29 30 31 31 32 33 33 34 34 35 36 36 36 37 37 37 38
23 23 22 21 21 21 21 21 20 20 20 20 20 21 21 21 22 23 24 26 27 28 28 29 30 30 31 32 32 33 34 34 35 35 36 36 36 37 37 38 38 38 39
25 25 24 24 23 23 22 22 22 22 21 21 22 22 23 23 24 25 26 28 29 30 30 31 32 33 33 34 34 35 35 35 36 36 37 37 38 38 38 39 39 39 40
27 26 26 26 25 25 24 24 24 23 23 23 24 24 25 26 27 28 29 30 31 32 33 34 34 35 35 36 36 36 37 37 37 38 38 39 39 39 40 40 40 40 41
28 28 28 27 27 27 26 26 26 25 25 26 26 27 28 29 29 30 31 32 34 34 35 35 36 36 37 37 37 38 38 39 39 39 40 40 40 40 40 40 40 40 41
30 30 29 29 28 28 29 28 28 28 28 29 29 30 31 31 32 33 34 35 35 36 37 37 37 38 38 38 39 39 39 40 40 40 41 41 41 41 41 41 40 41 41
33 32 31 30 30 30 30 30 30 30 31 31 32 33 33 34 35 35 36 37 37 38 38 38 39 39 40 40 40 40 40 40 41 41 41 41 41 41 41 41 41 41 41
35 34 33 32 32 32 32 32 32 33 34 34 34 35 36 37 37 38 38 39 39 39 39 39 39 40 40 40 40 41 41 41 41 41 42 41 41 41 42 42 42 42 42
37 36 35 34 35 34 34 34 35 36 36 36 36 37 38 39 39 40 40 39 39 39 39 40 40 40 41 41 41 41 41 41 42 42 42 42 42 42 42 42 42 43 43
39 38 37 37 37 36 36 37 37 37 37 37 38 39 40 40 40 40 40 40 40 40 40 40 41 41 41 41 41 41 41 41 42 42 42 42 42 43 42 42 43 43 42
40 40 39 38 38 38 39 39 39 38 38 39 40 41 41 41 40 40 40 40 40 41 41 41 41 41 41 41 41 41 41 42 42 41 42 42 42 43 43 43 43 42 42
42 41 41 40 40 39 39 39 40 39 40 40 41 41 41 41 41 41 41 41 41 41 41 40 40 40 40 40 41 41 41 42 42 41 41 42 43 43 43 43 43 43 43
42 42 42 42 41 40 40 40 40 40 40 40 40 41 41 40 40 41 41 41 40 40 40 40 40 40 40 41 41 41 42 41 41 41 42 42 43 43 43 43 44 44 44

GEFSSE_500_meanwind_126.txt.gz
Wind_Speed
22 21 21 20 19 19 18 17 16 15 14 12 12 11 10 10 9 9 9 9 9 9 9 9 9 10 10 11 11 11 12 13 14 14 15 16 17 17 18 18 19 19 20
23 22 22 21 20 19 19 18 16 15 14 13 12 12 11 11 10 10 10 10 10 10 9 10 10 11 11 12 12 12 13 14 15 16 17 17 18 18 18 19 20 20 21
24 23 22 21 20 20 19 18 17 16 15 14 13 12 12 12 11 11 10 10 11 10 11 11 11 12 12 12 13 13 14 15 16 17 17 18 18 19 20 20 21 21 22
25 24 23 22 21 20 19 18 18 17 16 15 14 14 13 12 12 11 11 11 11 11 11 12 12 13 13 13 14 15 16 17 17 18 18 19 20 21 21 21 22 23 23
25 25 24 23 22 21 20 19 18 17 16 16 15 14 14 13 12 12 11 11 12 12 12 13 13 13 13 14 15 16 17 18 18 19 20 21 22 22 23 23 24 24 25
25 25 24 24 23 22 21 20 19 18 17 16 15 14 14 13 13 12 12 12 13 13 13 13 13 14 14 15 17 17 18 19 19 20 21 22 23 24 24 25 26 26 27
26 26 25 24 23 23 22 21 20 18 18 17 16 15 14 14 13 13 13 13 13 13 13 13 14 15 16 17 18 18 19 20 21 22 23 24 24 25 26 26 27 28 29
26 26 26 25 24 24 23 22 20 19 18 17 17 16 15 15 14 14 14 13 13 14 14 15 16 16 17 18 19 20 21 22 23 23 24 25 25 26 27 28 29 29 30
26 27 27 26 25 25 23 22 21 20 19 18 17 17 16 16 15 15 14 14 14 15 15 16 17 18 19 19 20 21 22 23 24 25 25 26 27 28 29 30 30 31 31
26 26 26 26 26 25 24 23 22 21 20 19 18 17 17 16 16 16 15 15 16 16 17 17 18 19 20 21 22 23 24 25 25 26 27 28 29 29 30 31 32 32 33
26 26 26 26 26 25 24 23 22 22 21 20 19 19 18 17 17 17 17 17 17 18 18 19 19 20 21 23 24 25 26 26 27 28 29 30 30 31 32 32 33 33 34
26 26 26 27 27 26 25 24 23 22 22 20 20 19 19 19 18 18 19 19 19 19 19 20 21 22 23 24 25 26 27 28 29 30 31 31 32 32 33 33 34 35 35
27 27 27 27 27 26 25 24 23 23 22 21 21 20 20 20 20 20 20 19 20 20 21 22 23 24 25 26 27 28 29 30 31 31 32 33 33 33 34 35 36 36 37
28 28 28 27 27 26 25 24 24 23 23 23 22 21 21 21 21 21 20 20 21 22 22 24 25 26 27 28 29 30 31 31 32 33 34 34 35 35 35 36 37 37 38
30 29 29 29 28 27 26 25 25 24 24 23 23 23 22 22 22 21 21 22 23 23 25 26 27 28 29 30 31 31 32 33 34 35 36 36 36 36 37 38 38 39 39
31 30 30 30 29 28 27 27 26 25 25 25 25 24 23 23 23 23 24 24 25 25 27 28 29 30 31 32 33 33 34 35 36 36 37 37 37 38 39 39 39 39 39
33 32 31 31 30 30 29 28 28 27 27 26 26 25 24 24 25 25 25 26 27 28 29 30 31 32 33 33 34 35 36 36 37 37 37 38 38 39 39 39 39 39 39
35 34 33 33 32 31 31 30 29 29 28 28 27 27 26 27 27 27 27 28 29 30 31 32 33 33 34 35 36 36 37 37 38 38 38 38 39 39 39 39 40 40 39
36 36 35 34 34 33 32 32 31 30 29 29 29 29 29 29 29 29 29 30 31 32 33 34 34 35 35 36 37 37 37 37 37 38 38 39 39 39 39 40 40 39 40
39 37 36 36 35 35 34 33 32 31 31 31 31 31 31 30 30 30 31 32 33 34 34 35 35 36 36 37 37 37 37 37 38 38 38 39 39 39 39 40 40 39 40
41 39 38 37 37 36 35 34 33 33 33 33 33 32 32 32 32 33 34 34 35 35 35 36 36 36 37 37 37 37 37 38 38 38 38 39 39 39 40 40 39 39 39
42 41 39 38 38 37 36 35 35 35 35 34 34 34 34 34 35 35 36 36 36 36 36 37 37 37 38 37 37 37 37 38 38 38 38 38 38 39 39 39 39 39 39
44 42 41 40 39 38 37 37 37 36 35 35 35 36 36 37 37 37 37 37 37 37 37 37 37 38 37 37 37 37 37 38 38 38 38 39 39 39 39 39 39 39 40
46 45 43 41 40 39 39 38 38 37 36 36 37 38 38 38 38 38 38 38 37 37 37 37 37 37 37 37 37 37 38 38 38 38 39 39 39 39 39 39 39 40 41
48 47 45 43 42 41 41 40 39 38 38 38 38 39 39 39 39 38 38 38 37 37 38 37 37 37 37 37 37 37 37 37 37 38 38 39 39 39 39 39 40 41 41
50 48 47 45 44 43 42 41 40 39 39 39 39 39 39 39 39 38 38 38 38 37 37 37 37 37 37 37 37 37 37 37 37 38 38 38 39 39 40 41 41 42 42

GEFSSE_500_meanwind_132.txt.gz
Wind_Speed
25 24 23 22 21 21 20 19 19 18 17 16 15 14 13 11 11 10 10 10 10 11 10 10 10 10 10 11 11 12 12 12 13 13 14 15 16 16 17 18 19 19 20
26 25 25 24 23 22 21 20 20 19 17 16 15 14 14 13 12 11 11 11 11 11 10 10 10 10 11 12 12 12 12 13 13 14 15 16 16 17 18 19 20 21 22
26 26 26 25 25 24 22 21 21 20 18 17 16 15 14 14 13 12 12 11 11 11 11 11 11 11 12 12 13 13 13 14 14 15 16 17 17 19 20 20 21 22 23
28 27 27 26 25 25 23 22 21 20 19 18 17 16 15 14 14 13 12 12 12 12 11 11 11 12 13 13 12 13 14 14 15 16 17 18 19 20 21 22 23 24 24
29 29 28 27 26 25 24 23 22 21 20 19 18 17 16 15 14 13 13 13 12 12 11 11 12 13 12 12 13 14 15 16 17 17 18 19 20 21 23 23 24 25 26
30 30 29 29 27 26 25 24 23 22 21 20 19 18 17 16 15 14 14 13 13 12 12 12 13 13 13 13 14 15 16 17 18 19 20 21 22 23 24 25 26 26 27
30 30 30 30 29 27 26 25 24 23 22 21 19 18 18 17 16 15 14 14 13 13 13 13 13 13 13 14 15 16 18 19 19 20 22 23 24 25 26 26 27 28 29
31 30 30 30 30 29 27 26 25 24 22 21 20 19 19 18 16 16 15 15 14 14 14 14 14 14 15 16 17 18 19 20 21 22 24 25 25 26 27 28 29 30 31
31 30 30 30 30 29 28 27 26 25 24 22 21 20 19 18 17 17 16 16 15 15 15 15 15 15 16 17 18 19 20 21 23 24 25 26 27 28 29 30 31 32 33
30 30 30 30 30 30 29 28 27 26 24 23 22 21 20 19 18 18 17 16 16 16 15 16 16 17 18 19 20 21 22 23 24 25 26 28 29 30 31 32 33 33 34
30 30 30 30 30 31 30 29 28 26 25 24 23 22 21 20 19 18 18 17 17 16 16 17 17 18 19 20 21 22 23 24 25 27 28 29 30 31 32 33 34 35 35
31 30 30 30 30 31 31 30 29 27 26 25 24 22 21 20 19 19 18 18 17 17 18 18 18 19 20 21 23 24 25 26 27 29 30 31 32 33 34 35 35 36 37
32 31 31 30 31 30 30 30 30 29 27 26 24 23 22 21 20 20 19 18 18 18 19 19 20 21 22 23 24 25 26 28 29 30 31 32 33 35 35 36 37 37 38
33 33 32 31 30 30 31 30 30 29 28 26 25 24 23 22 21 20 20 19 19 20 20 21 21 22 24 25 26 27 28 29 30 32 32 33 35 36 36 37 37 38 38
35 34 32 32 31 31 31 31 30 29 28 27 26 24 24 23 22 22 21 21 21 21 22 22 23 24 25 26 27 29 30 31 32 33 34 35 36 37 37 38 38 38 38
36 35 34 33 32 32 32 31 30 30 29 27 26 25 24 24 23 22 22 22 22 23 24 24 25 26 27 28 29 30 32 33 33 34 35 36 37 37 37 38 38 38 38
38 37 36 34 34 33 33 32 31 30 29 28 27 26 25 24 24 23 23 23 24 25 25 26 26 27 28 29 31 32 33 34 35 35 36 37 37 37 38 38 38 38 39
41 39 37 36 35 34 34 33 32 31 30 29 28 27 26 25 25 25 24 25 25 26 27 27 27 28 29 31 32 33 34 35 35 36 36 37 37 38 38 38 39 39 39
43 41 39 37 36 36 35 34 33 32 31 30 29 28 27 26 26 26 26 26 27 28 28 28 29 30 31 32 34 35 35 35 36 36 37 37 38 38 38 39 39 39 39
44 43 41 39 38 37 36 35 34 33 32 31 30 29 29 28 28 28 28 28 28 29 29 30 30 31 33 34 35 35 35 36 36 37 37 37 38 38 39 39 39 39 39
47 45 43 41 39 38 36 35 34 33 33 32 31 31 30 29 29 29 29 29 29 30 30 31 32 33 34 35 35 35 36 36 37 37 37 38 38 39 39 39 39 39 39
49 47 45 42 41 39 37 36 35 35 34 33 32 32 31 31 31 31 30 30 31 31 32 32 33 34 34 35 35 36 36 36 37 37 38 38 38 39 39 39 39 39 38
51 49 46 44 42 41 39 38 37 36 35 34 34 34 33 33 32 32 32 32 32 32 33 33 34 34 34 35 36 36 36 36 37 37 38 39 39 39 39 39 39 39 39
51 50 48 46 44 43 41 40 39 38 36 36 36 35 35 34 33 33 34 34 33 33 34 34 34 35 35 35 36 36 37 37 37 37 38 39 39 39 39 39 39 39 39
52 52 50 49 47 45 43 41 40 39 38 38 37 36 36 35 35 35 35 35 35 35 35 35 35 35 35 35 36 36 37 38 38 38 38 39 40 40 39 39 39 39 39
54 53 52 51 49 47 45 43 41 39 39 39 38 37 37 37 36 36 37 36 36 35 35 35 35 35 35 36 36 37 37 38 38 38 39 39 39 39 39 40 40 40 40

GEFSSE_500_meanwind_138.txt.gz
Wind_Speed
27 26 25 24 23 22 21 21 20 19 18 17 16 15 14 13 12 11 11 10 9 9 10 10 10 9 9 9 9 10 11 11 11 11 12 13 14 15 15 16 17 18 19
28 27 26 25 25 24 23 22 21 20 19 18 17 16 15 14 13 12 12 11 11 11 10 10 10 10 10 10 10 11 11 11 11 12 13 14 15 16 16 17 18 19 20
28 27 27 27 26 25 25 24 23 22 20 19 18 17 16 15 14 14 13 12 12 12 11 11 11 10 10 10 11 11 11 12 12 13 14 15 16 17 18 19 20 21 22
29 29 28 28 27 27 26 25 24 23 22 21 20 18 17 16 16 15 14 13 13 13 12 12 11 11 11 11 11 11 11 12 13 14 15 16 17 18 19 20 21 22 23
30 30 29 29 28 28 27 26 25 24 23 22 21 20 18 17 16 15 15 14 14 13 13 12 12 11 11 11 11 11 12 13 14 16 17 18 19 19 20 22 23 24 25
31 30 30 30 30 29 28 27 26 25 24 23 22 21 19 18 17 17 16 15 15 14 14 13 12 12 12 12 12 12 13 14 16 17 18 19 20 20 22 23 24 25 26
32 32 31 31 31 30 30 29 28 26 25 25 23 22 21 19 18 18 17 16 16 15 15 14 13 13 12 12 13 13 14 15 17 18 19 20 21 22 23 24 26 27 28
33 33 32 32 32 32 31 30 29 28 27 26 24 23 22 20 19 19 18 17 17 16 15 14 14 13 13 13 13 14 15 16 18 19 20 21 22 23 25 26 27 29 30
34 34 33 33 32 32 32 31 31 29 28 27 25 24 23 21 20 19 19 18 17 17 16 15 15 14 14 14 14 15 17 18 19 20 21 22 23 24 26 27 29 30 31
36 35 35 34 33 32 32 32 32 31 29 28 26 25 24 22 21 21 20 19 18 18 17 16 16 15 15 15 16 17 18 19 20 21 22 23 25 26 27 28 30 31 32
36 36 35 35 34 33 33 33 32 32 31 29 27 26 25 24 23 22 21 20 19 19 18 17 16 16 16 16 17 18 19 20 21 22 23 24 26 27 28 29 30 32 33
37 36 35 35 35 34 34 33 33 32 32 31 29 28 26 25 24 23 22 21 20 19 18 18 17 17 17 17 18 19 20 21 22 23 24 26 27 28 29 30 31 32 33
38 37 36 36 35 35 34 34 34 33 32 32 30 29 28 26 25 24 22 22 21 20 19 19 18 18 18 18 19 20 21 22 23 25 26 27 28 29 30 31 32 33 34
38 37 37 36 35 35 35 34 34 34 33 32 32 30 28 27 26 24 23 23 22 21 20 19 19 19 19 19 20 21 22 24 25 26 27 28 29 30 31 32 33 34 35
40 38 37 36 35 35 35 35 34 34 33 33 32 31 29 28 27 25 24 24 22 21 21 20 20 20 20 20 21 23 24 25 26 27 28 29 30 31 32 33 34 35 35
41 39 38 37 36 35 35 34 34 34 33 33 33 32 30 29 28 26 26 25 23 22 21 21 21 21 21 22 23 24 25 26 27 28 29 30 31 32 33 34 35 35 36
42 41 40 38 37 36 35 34 34 34 34 33 33 32 31 30 28 27 27 26 24 23 23 22 22 22 23 23 24 25 27 28 28 29 30 31 32 33 34 35 35 36 37
45 43 42 40 39 37 36 35 34 34 34 34 33 32 31 30 29 28 28 27 25 24 24 23 23 24 24 25 26 27 28 29 29 30 31 32 33 34 35 35 36 37 37
47 45 44 42 40 39 37 36 35 35 35 34 34 33 32 31 30 29 28 27 26 25 25 25 25 25 26 26 27 28 29 30 30 31 32 33 34 34 35 36 37 37 38
48 47 46 44 42 41 39 38 36 36 35 35 34 33 32 32 30 30 29 28 27 26 26 26 26 27 27 27 28 29 30 30 31 32 32 34 34 35 36 37 37 38 38
51 49 47 46 44 42 41 39 37 36 36 35 34 34 33 32 31 30 29 28 27 27 27 27 27 28 28 28 29 30 30 30 31 32 33 34 35 36 37 37 38 38 39
53 50 49 47 45 43 41 39 38 38 37 36 35 34 33 32 31 31 30 29 28 28 28 28 28 28 29 29 30 31 31 31 32 33 34 35 35 36 37 38 38 39 39
54 52 50 48 46 44 42 41 41 40 38 37 35 34 34 33 32 31 30 30 30 29 29 29 29 30 30 31 31 31 32 32 33 34 35 35 36 37 37 38 38 39 40
55 53 51 49 47 45 44 43 41 39 37 36 36 35 35 34 33 32 31 31 31 31 31 31 31 31 31 31 32 32 33 33 34 34 35 36 36 37 38 38 39 39 40
55 54 52 50 49 47 45 43 41 40 38 37 37 36 35 35 34 33 33 33 32 32 32 32 31 32 32 32 32 33 33 34 35 35 35 36 37 37 38 38 39 39 40
56 56 53 52 50 48 46 44 42 40 39 38 37 37 36 35 35 34 34 34 33 33 33 32 32 32 33 33 34 34 34 35 35 35 36 36 37 38 38 39 39 40 41

GEFSSE_500_meanwind_144.txt.gz
Wind_Speed
29 29 29 28 27 26 24 23 22 21 20 18 17 16 15 14 12 11 10 9 8 7 6 6 7 7 8 8 9 9 10 10 10 10 11 11 12 14 15 16 16 17 18
32 31 30 29 28 28 26 25 24 23 21 20 19 18 16 15 14 13 11 10 9 8 8 7 8 8 9 9 9 10 10 10 10 10 11 12 13 15 16 16 17 18 19
33 32 31 31 30 29 28 27 26 24 23 22 20 19 18 17 15 14 13 12 11 10 9 9 9 9 9 10 10 10 10 10 10 11 12 13 14 15 16 17 18 19 20
34 34 33 32 31 31 30 29 27 26 24 23 22 20 19 18 17 16 14 13 12 11 10 10 10 10 11 11 11 11 11 10 11 11 12 13 14 16 17 18 19 20 21
35 35 35 34 33 32 31 30 29 27 26 24 23 22 21 20 18 17 16 14 13 12 12 11 11 11 11 11 11 11 11 11 12 12 13 14 16 17 18 19 20 21 22
36 36 36 35 34 33 32 31 30 29 27 26 25 23 22 21 20 18 17 16 15 14 13 12 12 12 12 12 12 12 12 12 12 13 14 15 17 18 18 19 20 21 23
37 36 37 36 35 35 33 32 31 30 29 28 26 25 24 22 21 20 19 18 16 15 14 13 13 13 13 13 12 12 12 12 13 13 15 16 17 18 19 20 21 22 24
38 37 38 38 37 36 35 33 32 31 30 29 28 26 25 24 23 21 20 19 18 16 15 15 14 14 14 14 13 13 13 13 14 14 16 17 18 19 20 21 22 23 25
40 39 39 39 38 37 36 34 33 33 31 30 29 27 26 25 24 23 21 20 19 18 17 16 15 15 15 15 14 14 14 14 15 16 17 18 19 20 21 22 23 24 26
42 41 40 39 38 38 37 36 34 33 32 31 30 28 28 27 26 24 23 21 20 19 18 17 17 16 16 15 15 15 15 15 16 17 17 18 20 21 22 23 24 25 27
43 42 41 40 39 39 38 37 36 35 34 32 31 30 29 28 27 26 24 23 22 20 19 18 18 17 17 16 16 16 15 16 17 18 18 19 21 22 23 24 25 27 28
44 43 42 41 41 40 39 38 37 36 35 34 33 31 30 29 28 27 26 24 23 22 20 19 19 18 18 18 18 17 16 17 18 19 20 21 22 23 24 25 26 28 29
46 45 44 43 42 41 40 39 38 37 36 35 34 33 32 30 29 28 27 26 24 23 22 21 20 19 19 19 18 18 18 18 19 19 21 22 23 24 25 26 28 29 30
48 46 45 45 43 42 41 40 39 39 38 37 35 34 33 32 31 30 28 27 26 24 23 22 21 21 20 20 19 19 19 19 19 20 22 23 24 25 26 27 29 30 32
49 47 46 45 44 43 42 41 40 39 39 38 37 36 35 34 33 32 30 29 27 26 24 23 23 22 21 21 20 20 20 20 20 22 23 24 25 26 27 29 30 31 33
51 49 48 46 45 43 42 41 41 40 39 39 38 37 36 35 34 33 31 29 28 27 26 25 24 22 22 22 21 21 21 21 22 23 24 25 26 28 28 29 31 32 34
52 51 49 47 45 44 43 42 41 40 40 39 38 37 36 35 34 33 32 30 29 28 27 26 25 24 23 23 22 22 22 22 23 24 25 26 28 29 29 30 32 33 34
54 52 51 49 47 46 44 43 42 40 40 39 38 38 37 36 35 34 33 31 30 29 28 27 26 25 24 23 23 23 23 24 25 25 26 27 28 29 30 31 33 34 35
55 54 53 51 49 47 45 44 43 41 40 40 39 38 37 36 35 35 33 32 31 30 29 27 27 26 25 25 24 24 25 25 26 26 27 28 29 30 31 33 34 35 36
57 56 54 52 50 48 47 45 44 42 40 40 39 38 38 37 35 35 34 32 31 30 29 28 28 27 26 26 25 26 26 27 27 28 29 30 31 32 33 34 35 36 37
58 57 55 54 51 49 48 46 44 42 40 39 39 39 38 37 35 35 34 33 32 31 30 29 28 28 27 27 27 27 28 28 28 29 30 31 32 33 34 35 36 37 38
59 58 56 55 53 50 48 46 44 43 41 40 39 39 38 37 36 35 34 33 32 31 30 30 29 28 28 28 28 28 29 29 30 30 31 32 33 34 35 36 37 38 39
60 59 57 55 54 52 49 48 47 45 43 41 39 38 37 36 36 35 34 33 32 31 30 29 29 29 28 28 29 29 29 30 31 31 32 33 34 35 36 37 38 39 40
60 59 57 56 54 53 51 50 48 45 42 40 38 38 38 37 37 36 35 34 33 32 31 30 30 29 29 29 29 29 30 31 31 32 33 34 35 36 37 38 39 40 40
61 59 58 57 55 54 52 50 49 46 43 42 41 40 39 38 37 36 36 35 34 33 32 31 30 30 30 30 30 30 31 32 32 32 33 34 36 37 38 39 40 40 41
62 61 59 58 56 54 53 51 49 47 45 43 42 41 39 39 37 36 36 35 34 33 33 32 31 31 31 31 31 32 33 33 33 33 34 35 36 38 39 40 41 41 42

GEFSSE_500_meanwind_150.txt.gz
Wind_Speed
28 29 28 28 28 28 27 26 25 25 24 23 22 21 20 19 18 17 16 14 13 11 10 8 7 6 5 5 5 5 6 6 6 6 7 7 8 9 9 10 12 12 13
30 30 30 29 29 29 29 28 28 27 26 26 24 23 22 21 20 19 18 16 14 13 11 10 8 7 7 6 6 6 7 7 7 7 7 8 8 9 10 11 12 13 13
32 31 31 31 31 31 30 30 30 29 29 27 26 25 24 23 22 21 19 18 16 15 13 12 10 9 8 8 8 7 8 8 8 7 8 8 9 10 11 12 13 13 14
34 33 33 33 33 33 32 32 31 31 31 29 28 27 26 25 24 23 21 20 18 17 15 13 12 10 9 9 9 9 9 9 9 8 8 9 9 10 12 12 13 14 14
36 36 35 35 35 35 34 33 33 33 33 32 30 29 28 27 26 24 23 22 20 18 17 15 14 12 11 10 10 10 10 10 9 9 9 9 10 11 12 13 13 14 15
39 38 38 37 37 37 36 36 35 34 34 34 32 31 30 29 27 26 24 23 22 20 19 17 16 14 13 12 11 11 11 10 10 10 10 10 11 12 13 13 14 15 17
41 41 40 40 39 39 38 38 37 36 36 35 34 33 32 30 29 27 26 24 23 22 21 19 17 16 14 13 12 12 11 11 11 11 11 11 11 12 13 14 15 16 18
44 44 43 42 41 41 40 40 39 38 37 37 36 35 33 32 30 29 27 26 25 23 22 20 19 17 16 14 14 13 12 12 12 12 12 12 12 13 14 15 16 17 19
46 46 45 45 43 43 42 41 41 40 39 38 37 36 35 33 32 30 28 27 26 25 23 22 20 19 17 16 15 14 14 13 13 13 13 13 14 14 15 17 18 18 20
49 48 48 47 46 45 44 43 42 41 40 40 39 38 37 35 33 31 30 29 27 26 25 24 22 21 19 18 17 16 15 15 14 14 14 14 15 16 17 18 19 20 21
51 51 50 49 48 47 46 45 43 43 42 41 40 39 38 36 35 32 31 30 29 27 26 25 23 22 20 19 18 17 16 16 16 16 16 16 16 17 18 19 20 21 22
54 53 52 51 50 49 48 47 45 44 43 42 41 40 38 37 36 34 32 31 30 29 27 26 25 23 22 21 20 19 18 17 17 17 17 17 18 18 19 20 21 22 23
56 56 54 53 52 51 50 49 48 46 45 44 42 41 40 39 37 35 34 32 31 30 29 28 26 24 23 22 21 20 19 18 18 18 18 18 19 19 20 21 22 23 24
58 57 56 55 54 54 52 51 50 48 47 45 43 42 41 40 38 37 35 34 32 31 30 29 27 26 24 23 22 21 20 20 20 20 20 19 20 20 21 22 23 24 25
61 59 58 57 57 55 54 53 51 50 48 47 45 44 42 41 40 38 37 35 34 32 31 30 28 27 25 24 23 22 21 21 21 21 21 21 21 22 22 23 24 25 26
62 61 60 60 58 57 55 54 52 51 50 48 47 46 44 42 41 40 38 36 35 33 32 30 29 28 26 25 24 23 23 22 22 22 22 22 23 23 23 24 25 26 28
63 62 62 61 60 59 57 55 54 53 52 50 49 47 46 44 42 41 39 38 36 34 33 31 30 29 28 27 26 25 25 24 23 23 23 24 24 24 25 26 27 28 29
63 63 63 62 62 60 58 56 55 55 53 52 50 48 47 45 43 42 40 39 37 35 34 32 31 30 29 28 27 27 26 25 25 25 25 25 25 26 26 27 28 29 31
64 64 64 63 63 62 60 57 56 55 53 52 50 49 48 47 45 43 41 40 38 36 35 33 32 31 30 29 28 28 27 26 26 26 26 26 27 27 28 28 29 30 32
64 64 65 64 63 63 61 59 57 56 54 52 50 49 48 47 46 44 42 40 39 37 36 35 33 32 31 30 29 29 28 27 27 27 27 27 28 28 29 30 31 32 33
64 65 65 64 64 63 62 61 58 56 54 52 51 50 49 47 46 45 43 41 40 38 37 35 34 33 32 31 30 29 28 28 28 28 28 29 29 29 30 31 32 33 34
64 64 64 64 64 64 62 60 58 56 55 53 51 50 49 48 47 45 44 42 40 39 38 36 35 33 32 31 31 30 29 29 29 29 29 30 30 31 31 32 33 34 36
61 64 64 64 64 63 62 61 59 57 55 54 52 50 49 48 47 46 44 42 41 39 38 36 36 34 33 32 32 31 30 29 29 29 30 31 32 32 32 33 34 36 37
59 62 63 63 64 63 62 60 59 58 55 53 52 50 49 48 47 46 44 43 41 39 38 36 35 35 34 33 32 31 31 30 30 30 31 32 32 33 33 34 36 37 38
57 59 61 64 64 63 62 60 60 58 55 53 53 52 49 48 47 46 45 43 41 40 38 37 36 35 34 33 32 32 31 31 31 31 32 33 33 33 34 35 36 38 39
56 58 59 62 64 63 63 61 60 59 57 54 52 52 50 48 47 45 44 43 41 40 39 37 36 35 34 33 33 32 32 32 32 32 32 33 34 34 35 36 37 38 39

GEFSSE_500_meanwind_156.txt.gz
Wind_Speed
25 27 27 28 27 27 27 26 26 26 25 24 23 22 21 20 19 19 18 17 16 15 13 12 11 10 9 9 8 7 7 7 7 7 7 7 7 8 8 8 9 10 11
27 28 29 29 29 29 29 29 28 28 27 27 26 25 24 23 22 21 20 19 18 17 16 14 13 12 11 10 9 9 9 8 8 8 8 8 8 8 8 9 10 10 11
29 29 30 30 31 31 31 31 30 30 29 29 28 27 26 25 24 23 22 21 20 19 18 17 15 13 13 12 11 11 10 10 10 10 9 9 9 9 9 10 10 11 11
31 31 32 32 32 33 33 33 32 32 31 31 30 29 29 28 26 25 24 23 22 21 20 18 17 15 14 14 13 12 12 11 11 11 10 10 10 10 10 11 11 11 12
34 33 34 34 34 35 35 35 34 34 33 33 32 31 31 30 29 27 26 25 24 23 21 20 19 18 16 15 15 14 13 13 12 12 11 11 11 11 11 11 12 12 13
38 37 36 36 36 36 36 37 37 36 35 35 34 33 33 32 31 29 28 27 26 24 23 22 21 20 18 17 16 15 15 14 14 13 12 12 12 12 12 12 13 13 14
41 40 40 39 39 39 39 38 39 38 37 36 36 36 35 34 33 31 30 29 28 26 25 24 22 21 20 19 18 17 16 16 15 14 14 13 13 13 13 14 14 14 15
44 43 43 42 42 42 41 41 41 40 39 38 38 37 37 35 35 34 32 31 29 28 27 25 24 23 22 21 20 19 18 17 16 15 15 15 14 14 15 15 15 16 16
48 46 46 45 45 44 44 43 43 42 41 41 40 39 38 37 37 35 34 33 31 29 28 27 26 25 24 23 22 20 19 18 17 17 16 16 16 16 16 16 17 17 18
51 50 49 48 47 47 46 46 45 45 44 43 42 41 40 40 39 37 36 35 33 31 29 28 27 26 25 24 23 22 21 20 19 18 18 18 18 18 18 18 18 19 19
55 54 52 51 50 50 49 48 48 47 46 45 44 43 42 41 40 39 37 36 34 33 31 30 29 28 26 25 25 24 22 21 21 20 19 19 19 19 19 19 19 20 21
58 57 56 54 53 52 52 51 51 50 49 48 46 45 44 43 42 40 39 37 36 34 33 31 30 29 27 27 26 25 24 23 22 21 21 20 20 20 20 21 21 21 22
60 60 59 57 56 55 55 54 53 52 51 50 49 47 45 44 43 42 40 39 38 36 34 33 32 30 29 28 27 26 26 25 23 23 22 21 21 21 22 22 22 23 23
62 62 61 59 58 57 57 56 55 55 54 52 50 49 47 46 44 43 42 40 39 38 36 34 33 32 31 29 28 27 27 26 25 24 23 23 22 23 23 23 23 24 24
64 63 62 61 60 59 59 58 57 56 56 54 51 49 48 48 46 45 43 42 40 39 38 36 34 33 32 31 30 29 28 27 26 25 24 24 24 24 24 24 24 25 26
63 63 63 63 61 61 61 60 59 58 57 56 54 52 50 49 48 46 45 44 42 40 39 38 36 34 33 32 31 30 29 28 27 26 26 25 25 25 25 25 26 26 27
61 62 64 63 63 62 62 61 60 59 59 58 56 54 52 50 49 48 46 45 44 42 40 39 37 36 34 33 32 30 29 29 28 27 27 26 26 26 26 26 27 27 28
57 60 62 63 63 63 63 62 61 61 60 59 57 55 54 52 51 50 47 46 45 43 41 40 38 36 35 33 32 31 30 29 28 28 28 27 27 27 27 27 28 29 29
54 57 59 61 62 62 63 63 62 62 61 60 59 57 55 54 52 51 50 47 46 44 42 41 39 37 36 34 32 31 31 30 29 29 29 28 28 28 28 28 29 30 31
52 55 56 58 60 62 62 62 62 63 63 61 61 58 57 55 53 52 51 49 46 45 44 42 40 38 37 35 33 32 31 30 30 30 30 29 29 29 29 29 30 31 32
51 53 55 57 58 61 62 62 62 63 64 62 62 60 57 55 54 53 52 50 47 45 44 42 41 39 38 36 35 33 32 31 31 31 30 30 30 30 30 30 31 32 33
48 51 53 55 58 60 61 61 61 61 62 61 62 61 59 56 54 52 52 49 47 46 44 42 41 40 38 37 36 35 34 33 32 31 31 31 31 31 31 31 32 33 34
45 49 52 52 55 59 61 62 61 62 63 62 61 61 59 57 55 53 52 50 48 47 46 43 41 40 39 38 37 36 35 34 34 32 32 32 32 31 31 32 33 34 35
44 47 50 52 53 57 59 61 63 62 63 62 62 61 61 58 55 52 51 51 49 47 46 45 43 41 40 38 37 36 36 35 34 33 33 33 32 31 32 32 33 34 36
42 46 48 49 52 56 59 59 61 61 61 63 63 61 59 59 56 52 51 50 48 46 46 44 43 41 40 39 38 37 36 35 35 34 33 32 32 32 33 33 34 35 36
39 44 46 48 51 54 57 59 59 59 60 61 61 60 59 57 56 53 51 49 47 46 45 43 42 42 41 39 38 37 36 35 35 33 33 33 33 33 34 34 35 36 37

GEFSSE_500_meanwind_162.txt.gz
Wind_Speed
20 20 21 22 22 22 22 22 22 22 22 22 22 21 21 20 19 18 17 17 16 15 14 13 12 11 11 10 10 9 9 9 9 9 9 9 10 10 10 10 10 11 11
22 21 22 23 24 24 24 24 24 25 25 24 24 24 23 22 22 20 19 19 18 17 16 15 14 14 13 12 12 11 10 10 10 10 10 11 11 11 11 11 11 12 12
23 23 24 24 25 25 26 26 27 27 27 27 27 26 26 25 24 23 22 21 20 20 19 17 17 16 15 14 13 12 12 11 11 12 12 12 12 12 12 12 12 12 13
26 26 26 26 27 27 28 28 28 29 29 29 29 28 28 27 26 25 24 23 23 22 21 19 19 18 17 16 15 14 13 13 13 13 13 13 13 13 13 13 13 13 13
29 29 28 28 29 29 30 30 30 30 31 31 31 30 30 29 29 28 27 26 25 24 23 22 21 20 19 18 17 16 15 15 14 15 15 14 14 14 14 14 14 15 15
32 32 32 31 31 31 32 32 32 32 32 33 33 33 32 32 31 31 30 28 28 27 25 24 23 22 21 20 18 17 17 16 16 16 15 15 15 15 15 15 16 16 16
35 35 35 35 34 34 34 34 34 34 34 35 35 35 35 34 33 33 32 31 30 29 27 26 25 23 22 21 20 19 19 18 17 17 17 17 16 16 16 17 17 17 17
39 38 38 38 37 37 37 37 37 36 36 36 37 37 37 36 36 35 34 33 32 31 29 28 27 26 24 23 22 21 20 20 19 18 18 18 18 18 18 18 18 18 19
43 42 42 41 41 40 40 40 40 39 39 39 39 39 39 38 37 37 36 34 33 32 31 30 29 28 26 25 23 22 22 21 20 20 20 19 19 19 19 19 19 19 20
47 46 46 45 45 44 43 43 43 42 42 41 41 41 41 40 39 39 38 36 35 34 33 32 31 30 28 27 25 24 24 23 22 21 21 21 20 20 20 20 20 20 21
50 49 49 49 48 47 47 46 46 45 45 44 44 43 43 42 42 41 40 39 37 36 34 33 32 31 30 29 27 26 25 24 24 23 22 22 22 22 22 22 21 21 22
54 53 52 52 52 51 50 50 49 49 48 47 46 46 45 45 44 43 42 40 39 38 36 35 34 33 31 30 29 27 26 26 25 24 24 23 23 23 23 23 23 23 23
57 57 55 55 55 54 53 53 52 52 51 50 49 48 48 47 46 45 44 42 41 40 38 36 35 34 33 31 30 29 28 27 26 25 25 24 24 24 24 24 24 24 24
59 60 59 59 58 58 57 56 55 55 54 53 53 51 50 49 48 47 46 44 42 41 40 38 37 36 34 33 32 31 29 28 27 26 26 25 25 25 25 25 25 25 25
61 61 61 62 61 61 60 59 58 58 57 56 56 55 54 52 51 49 48 46 44 43 41 40 39 37 36 35 33 32 31 29 28 27 27 26 26 26 25 25 26 26 27
60 61 62 63 61 62 62 61 61 61 60 59 58 57 56 55 54 52 51 49 48 45 43 41 40 39 38 36 35 33 32 31 30 28 27 27 27 27 26 26 26 27 28
57 60 62 62 61 62 63 63 62 63 62 61 60 59 58 57 56 55 53 51 50 47 45 44 42 41 39 38 36 34 32 31 30 29 28 28 28 27 27 27 27 28 29
54 57 60 62 62 62 63 63 64 64 64 63 61 60 60 59 58 57 55 52 51 49 47 45 43 42 41 39 37 35 34 32 31 30 29 29 29 29 29 28 29 29 30
53 55 57 60 61 61 62 61 64 65 65 64 62 61 60 60 59 58 56 54 52 51 49 47 44 42 41 40 39 37 35 33 32 31 30 30 30 29 29 29 30 30 31
51 52 54 56 59 59 60 60 61 63 64 65 63 61 61 61 61 60 58 56 53 52 50 48 46 44 42 41 40 38 37 35 34 32 31 31 30 30 30 30 31 31 32
47 49 51 52 56 58 58 58 59 60 63 64 63 62 61 61 61 60 59 58 55 53 51 49 47 45 43 41 41 39 37 36 35 33 32 31 31 31 31 31 32 33 33
43 45 48 50 53 55 56 57 57 59 61 63 63 62 61 61 61 59 59 58 57 54 52 51 49 47 44 42 41 40 38 37 36 34 33 32 32 32 32 33 33 33 33
40 42 44 48 49 51 54 57 57 58 60 62 63 62 61 61 62 61 59 59 58 55 52 51 49 47 45 44 43 41 39 37 36 35 34 33 33 33 33 33 33 34 34
37 39 41 43 46 47 51 54 56 57 58 60 62 61 61 61 62 62 60 60 59 57 53 52 50 48 48 46 45 42 39 37 37 36 35 34 34 34 34 34 34 34 34
34 36 38 39 43 45 48 51 55 56 56 58 61 62 59 59 61 60 59 59 59 57 54 52 50 48 47 45 44 43 41 39 37 36 35 35 35 35 35 34 34 34 34
31 32 35 38 40 43 45 48 51 54 55 56 59 60 58 58 59 60 59 58 58 57 56 52 49 47 47 45 44 43 41 40 38 37 36 35 35 35 35 35 34 34 34

GEFSSE_500_meanwind_168.txt.gz
Wind_Speed
19 19 19 20 20 20 20 20 20 20 20 20 19 19 18 18 17 16 15 15 14 13 12 11 11 10 10 9 9 9 9 8 8 9 9 9 10 10 11 11 12 12 12
20 20 20 21 21 22 21 21 21 21 21 21 21 21 21 20 20 19 18 17 16 15 14 14 13 13 12 11 11 10 10 10 10 10 10 11 11 11 12 12 13 13 13
22 22 22 22 22 23 24 23 23 23 23 23 23 23 23 23 22 21 20 19 19 18 17 16 15 14 14 13 12 12 11 11 11 11 11 12 12 13 13 14 14 14 14
24 24 24 24 24 24 24 25 25 25 24 24 24 24 24 24 24 24 23 22 21 20 19 19 18 16 15 15 14 14 13 13 13 13 13 13 13 14 14 15 15 14 15
27 27 27 27 27 27 26 26 27 27 27 26 26 26 26 26 25 25 25 24 23 22 22 21 20 18 17 17 16 15 15 14 14 14 14 14 15 15 15 15 15 15 15
30 30 30 30 30 30 29 29 29 29 29 28 29 28 28 28 27 27 26 26 26 25 24 23 21 21 20 19 18 17 17 16 16 16 16 16 16 16 16 16 16 16 16
33 33 32 33 33 33 33 32 32 31 31 30 30 30 30 30 29 29 28 28 27 26 25 24 24 23 22 21 20 19 18 18 18 17 17 17 17 17 17 17 17 17 17
36 36 36 35 35 35 35 36 35 35 34 33 33 32 32 32 31 31 30 30 29 28 27 26 26 25 24 23 23 21 20 20 20 19 19 19 19 18 18 18 18 18 19
40 40 39 39 39 38 38 38 38 38 37 37 36 35 34 34 34 33 32 32 31 30 29 28 28 27 26 25 25 24 23 22 22 21 21 20 20 20 19 19 19 19 20
44 43 43 43 42 42 42 41 41 41 40 40 40 39 38 37 36 35 34 35 34 33 31 30 29 29 28 27 26 26 25 24 23 23 22 22 21 21 20 20 20 20 21
47 47 46 46 46 45 45 45 45 44 44 43 43 42 41 40 39 38 37 36 36 35 34 33 31 30 29 29 28 27 27 26 25 24 24 24 23 22 22 21 21 21 22
50 49 49 49 49 49 49 48 48 47 47 46 46 45 44 43 42 41 40 39 38 37 36 35 34 32 31 31 30 29 28 28 27 26 25 25 24 24 23 22 22 22 22
51 52 52 52 51 51 51 51 51 50 50 49 49 48 47 46 45 43 43 42 41 40 38 37 36 35 34 33 32 31 30 29 28 27 26 26 26 25 24 24 23 23 23
53 53 54 54 54 54 54 54 54 53 53 52 51 51 51 50 48 46 45 44 43 43 41 40 38 37 37 35 34 33 32 31 30 29 28 27 27 27 26 25 24 24 24
54 54 55 56 56 57 57 57 57 56 55 54 55 54 53 52 51 50 48 47 47 46 44 42 41 41 39 37 36 35 34 33 32 30 29 28 28 28 27 26 25 25 25
53 54 55 56 57 58 59 60 60 59 58 58 58 57 56 55 54 53 51 51 49 49 47 45 44 43 42 40 39 38 37 35 33 32 31 30 29 28 28 27 27 27 27
54 54 55 57 58 59 61 62 62 62 61 61 60 60 59 59 58 57 54 54 53 52 50 48 46 45 44 42 41 40 39 37 35 33 32 31 30 29 29 28 28 28 28
53 54 55 56 58 59 61 62 63 63 63 63 63 62 62 62 61 60 57 57 56 54 53 51 49 47 46 44 43 42 40 39 37 35 33 32 31 30 30 29 29 29 29
52 53 53 54 56 58 59 61 62 64 64 64 64 64 64 64 63 63 60 59 59 57 55 54 52 50 48 46 44 43 42 41 38 36 34 33 32 31 31 30 30 30 30
50 51 53 53 54 56 58 59 61 63 64 64 64 64 64 64 64 64 63 62 61 60 58 57 55 51 50 48 46 44 43 42 40 38 36 35 33 32 31 31 30 30 30
48 50 51 52 53 54 56 58 59 60 62 63 63 62 63 63 63 63 64 64 63 62 60 58 57 54 53 51 48 45 44 43 42 40 37 36 34 33 32 31 31 31 31
45 48 49 50 51 52 54 57 59 59 59 60 61 61 61 62 62 63 63 64 63 63 61 60 59 57 55 53 50 47 45 44 43 40 39 37 35 33 33 33 32 32 32
42 45 47 48 50 51 52 55 57 57 56 57 58 59 60 60 61 61 60 62 63 63 62 61 60 58 56 53 51 48 45 44 42 41 40 38 35 34 34 34 33 33 33
39 42 45 46 48 49 50 52 53 54 53 53 55 57 57 58 59 60 60 60 61 62 61 59 60 60 58 55 52 49 46 44 43 42 41 39 36 35 34 34 34 34 34
38 40 42 43 44 45 46 48 50 51 51 50 52 54 56 57 57 57 58 59 59 60 59 58 59 59 57 56 53 50 47 45 44 43 42 40 38 36 35 35 34 34 36
37 38 40 40 41 42 43 44 46 49 50 49 50 53 55 56 56 56 57 58 58 58 58 58 59 58 57 55 54 52 48 45 44 44 42 40 39 38 37 36 35 35 36